Weather History for KCMA - March, 2012

Change the Weather History Date:

Sunday, March 25, 2012

  Actual Average Record
Temperature  
Mean Temperature 52 °F 57 °F  
Max Temperature 56 °F 66 °F 94 °F (1988)
Min Temperature 48 °F 48 °F 37 °F (1964)
Degree Days  
Heating Degree Days 13 8  
Month to date heating degree days 237 229  
Since 1 July heating degree days 1301 1565  
Cooling Degree Days 0 0  
Month to date cooling degree days 1 0  
Year to date cooling degree days 11 9  
Growing Degree Days 2 (Base 50)    
Moisture  
Dew Point 48 °F    
Average Humidity 83    
Maximum Humidity 100    
Minimum Humidity 66    
Precipitation  
Precipitation 1.53 in 0.04 in 2.13 in (1998)
Month to date precipitation 2.21 2.45  
Year to date precipitation 3.85 9.63  
Since 1 July precipitation 6.88  
Sea Level Pressure  
Sea Level Pressure 29.87 in    
Wind  
Wind Speed 7 mph (NE)    
Max Wind Speed 26 mph    
Max Gust Speed 36 mph    
Visibility 5 miles    
Events Rain    
T = Trace of Precipitation, MM = Missing Value Source: NWS Daily Summary

Daily Weather History Graph

Daily Weather History Graph

Search for Another Location

Airport or City:

Trip Planner

Search our weather history database for the weather conditions in past years. The results will help you decide how hot, cold, wet, or windy it might be!

Date:

Astronomy

Mar. 25, 2012 Rise Set
Actual Time 6:52 AM PDT 7:12 PM PDT
Civil Twilight 6:27 AM PDT 7:37 PM PDT
Nautical Twilight 5:57 AM PDT 8:06 PM PDT
Astronomical Twilight 5:28 AM PDT 8:36 PM PDT
Moon 8:17 AM PDT (3/25) 10:21 PM PDT (3/25)
Length of Visible Light 13h 10m
Length of Day
12h 19m
Waxing Crescent, 9% of the Moon is Illuminated
Mar 25
Waxing Crescent
Mar 30
First Quarter
Apr 6
Full
Apr 13
Last Quarter
Apr 21
New

Hourly Weather History & Observations

Time (PDT) Temp. Dew Point Humidity Pressure Visibility Wind Dir Wind Speed Gust Speed Precip Events Conditions
12:55 AM 53.1 °F 46.0 °F 77% 29.95 in 10.0 mi East 3.5 mph - N/A   Overcast
1:55 AM 54.0 °F 45.0 °F 72% 29.94 in 10.0 mi NE 5.8 mph - N/A   Overcast
2:55 AM 52.0 °F 46.0 °F 80% 29.94 in 10.0 mi Calm Calm - N/A   Overcast
3:55 AM 54.0 °F 46.0 °F 75% 29.91 in 10.0 mi ENE 3.5 mph - 0.00 in   Mostly Cloudy
4:23 AM 53.6 °F 44.6 °F 72% 29.87 in 10.0 mi NE 8.1 mph - N/A   Overcast
4:55 AM 55.0 °F 45.0 °F 69% 29.88 in 10.0 mi ENE 13.8 mph - N/A   Overcast
5:55 AM 55.0 °F 46.9 °F 74% 29.88 in 9.0 mi East 12.7 mph - 0.00 in Rain Light Rain
6:55 AM 53.1 °F 48.9 °F 86% 29.88 in 8.0 mi ENE 4.6 mph - 0.06 in Rain Light Rain
7:11 AM 51.8 °F 48.2 °F 88% 29.86 in 2.5 mi NW 4.6 mph - 0.06 in Rain Rain
7:16 AM 51.8 °F 48.2 °F 88% 29.86 in 2.0 mi WNW 12.7 mph 16.1 mph 0.12 in Rain Heavy Rain
7:34 AM 51.8 °F 48.2 °F 88% 29.87 in 1.5 mi NW 8.1 mph - 0.24 in Rain Heavy Rain
7:47 AM 51.8 °F 50.0 °F 94% 29.87 in 1.2 mi NNW 9.2 mph - 0.35 in Rain Heavy Rain
7:55 AM 52.0 °F 51.1 °F 97% 29.89 in 1.5 mi NW 5.8 mph - 0.39 in Rain Heavy Rain
8:00 AM 51.8 °F 51.8 °F 100% 29.86 in 1.5 mi NNW 8.1 mph - 0.02 in Rain Heavy Rain
8:10 AM 51.8 °F 50.0 °F 94% 29.87 in 2.5 mi North 4.6 mph - 0.05 in Rain Rain
8:31 AM 51.8 °F 50.0 °F 94% 29.87 in 1.8 mi NNW 3.5 mph - 0.12 in Rain Rain
8:55 AM 52.0 °F 48.9 °F 89% 29.90 in 1.8 mi North 4.6 mph - 0.23 in Rain Heavy Rain
9:06 AM 51.8 °F 48.2 °F 88% 29.87 in 2.5 mi NNE 6.9 mph - 0.03 in Rain Rain
9:39 AM 53.6 °F 50.0 °F 88% 29.86 in 2.5 mi ENE 6.9 mph - 0.11 in Rain Rain
9:41 AM 53.6 °F 50.0 °F 88% 29.86 in 2.5 mi ENE 6.9 mph - 0.12 in Rain Rain
9:55 AM 53.1 °F 50.0 °F 89% 29.88 in 2.5 mi ENE 11.5 mph - 0.15 in Rain Heavy Rain
10:12 AM 53.6 °F 50.0 °F 88% 29.86 in 4.0 mi ENE 11.5 mph - 0.03 in Rain Rain
10:35 AM 53.6 °F 50.0 °F 88% 29.86 in 2.5 mi ENE 10.4 mph - 0.07 in Rain Rain
10:53 AM 53.6 °F 50.0 °F 88% 29.85 in 3.0 mi ENE 10.4 mph - 0.11 in Rain Rain
10:55 AM 53.1 °F 51.1 °F 93% 29.88 in 2.5 mi ENE 11.5 mph - 0.11 in Rain Rain
11:17 AM 53.6 °F 51.8 °F 94% 29.85 in 2.0 mi East 9.2 mph - 0.04 in Rain Rain
11:23 AM 53.6 °F 51.8 °F 94% 29.85 in 2.0 mi East 9.2 mph - 0.04 in Rain Light Rain
11:36 AM 53.6 °F 51.8 °F 94% 29.85 in 1.8 mi East 4.6 mph - 0.08 in Rain Rain
11:48 AM 53.6 °F 51.8 °F 94% 29.85 in 3.0 mi East 5.8 mph - 0.10 in Rain Light Rain
11:55 AM 54.0 °F 52.0 °F 93% 29.88 in 2.5 mi East 4.6 mph - 0.11 in Rain Rain
12:10 PM 53.6 °F 51.8 °F 94% 29.84 in 1.8 mi Calm Calm - 0.02 in Rain Light Rain
12:17 PM 53.6 °F 51.8 °F 94% 29.84 in 3.0 mi Calm Calm - 0.02 in Rain Light Rain
12:55 PM 54.0 °F 51.1 °F 90% 29.86 in 2.0 mi South 6.9 mph - 0.06 in Rain Light Rain
1:06 PM 53.6 °F 51.8 °F 94% 29.83 in 3.0 mi South 6.9 mph - 0.02 in Rain Light Rain
1:14 PM 55.4 °F 51.8 °F 88% 29.82 in 2.5 mi South 5.8 mph - 0.02 in Rain Light Rain
1:17 PM 55.4 °F 51.8 °F 88% 29.82 in 8.0 mi South 4.6 mph - 0.02 in Rain Light Rain
1:55 PM 55.9 °F 52.0 °F 87% 29.85 in 10.0 mi SSW 10.4 mph - 0.03 in Rain Light Rain
2:23 PM 53.6 °F 51.8 °F 94% 29.81 in 2.0 mi SSW 15.0 mph 20.7 mph 0.01 in Rain Light Rain
2:31 PM 53.6 °F 50.0 °F 88% 29.81 in 2.0 mi SSW 10.4 mph 20.7 mph 0.02 in Rain Light Rain
2:55 PM 55.0 °F 48.9 °F 80% 29.84 in 8.0 mi SSW 10.4 mph - 0.03 in Rain Light Rain
3:26 PM 51.8 °F 44.6 °F 76% 29.83 in 7.0 mi WSW 24.2 mph 33.4 mph 0.06 in Rain Light Rain
3:30 PM 51.8 °F 44.6 °F 76% 29.83 in 7.0 mi WSW 19.6 mph 32.2 mph 0.07 in Rain Rain
3:55 PM 52.0 °F 46.0 °F 80% 29.86 in 7.0 mi SW 11.5 mph - 0.09 in Rain Light Rain
4:55 PM 52.0 °F 45.0 °F 77% 29.85 in 10.0 mi West 3.5 mph - 0.01 in   Mostly Cloudy
5:28 PM 53.6 °F 46.4 °F 77% 29.83 in 10.0 mi Calm Calm - N/A   Mostly Cloudy
5:53 PM 53.6 °F 44.6 °F 72% 29.84 in 9.0 mi Variable 3.5 mph - N/A   Overcast
5:55 PM 53.1 °F 45.0 °F 74% 29.87 in 6.0 mi SW 4.6 mph - 0.00 in Rain Light Rain
6:55 PM 52.0 °F 42.1 °F 69% 29.88 in 10.0 mi SSE 3.5 mph - 0.00 in   Mostly Cloudy
7:55 PM 51.1 °F 44.1 °F 77% 29.90 in 10.0 mi ENE 5.8 mph - 0.01 in   Overcast
8:12 PM 51.8 °F 44.6 °F 76% 29.87 in 10.0 mi ENE 9.2 mph - N/A   Overcast
8:28 PM 51.8 °F 44.6 °F 76% 29.87 in 8.0 mi NE 10.4 mph - 0.01 in Rain Rain
8:55 PM 50.0 °F 45.0 °F 83% 29.92 in 3.0 mi NNE 6.9 mph - 0.08 in Rain Heavy Rain
9:13 PM 50.0 °F 46.4 °F 87% 29.90 in 2.5 mi North 4.6 mph - 0.10 in Rain Heavy Rain
9:31 PM 50.0 °F 44.6 °F 82% 29.90 in 5.0 mi North 11.5 mph - 0.17 in Rain Light Rain
9:44 PM 50.0 °F 46.4 °F 87% 29.90 in 10.0 mi NE 9.2 mph - 0.17 in   Overcast
9:55 PM 50.0 °F 46.0 °F 86% 29.94 in 10.0 mi ENE 9.2 mph - 0.17 in Rain Light Rain
10:55 PM 50.0 °F 46.0 °F 86% 29.96 in 10.0 mi ENE 8.1 mph - 0.00 in   Overcast
11:55 PM 48.9 °F 44.1 °F 83% 29.97 in 10.0 mi NE 8.1 mph - N/A   Partly Cloudy